P/2024 FG9 ( Nanshan-Hahn )

Japanese version
Home page
Updated on September 27, 2024

---------------------------------------------------------------------

* Profile

Discovery Date March 8 and April 10, 2024
Magnitude 19.7 mag, 18.7 mag
Discoverer Xio Liao (Xingming Sky Survey, Mt. Nanshan station, Xinjiang Astronomical Observatory), Robson Henrique dos Santos Hahn (Moeckmuehl, Germany)

* Pictures

* Orbital Elements

Epoch 2024 Oct. 17.0 TT = JDT 2460600.5
T 2024 May 20.35360 TT                                  Rudenko
q   1.5963970            (2000.0)            P               Q
n   0.16770861     Peri.  245.91547     -0.75384280     -0.65641905
a   3.2566104      Node   253.04366     +0.61327563     -0.68714880
e   0.5097980      Incl.    1.73121     +0.23582627     -0.31135278
P   5.88
>From 136 observations 2016 July 29-2024 July 23, mean residual 0".6.

* Finding Charts

* Magnitudes Graph

        m1 = -5.0 + 5 log d + 50 log r(t - 200)  [  ,15]  (             - 2024 June  4)
        m1 =  9.0 + 5 log d + 20 log r           [15,  ]  (2024 June  4 -             )

---------------------------------------------------------------------

The orbital elements are published on M.P.E.C. 2024-R10.
The charts are made with StellaNavigator Ver.11 (AstroArts).
The magnitudes graphs are made with Comet for Windows.

---------------------------------------------------------------------

Copyright(C) Seiichi Yoshida (comet@aerith.net). All rights reserved.